Retour au catalogue

ASIASAT 3S

ActifCommunicationsGEO
NORAD 25657·PAYLOAD·🇸🇭 SH

Lancé Mar 21, 1999 depuis Baikonur Cosmodrome

Loading…

TLE

FraisSource: Space-Track

Époque: Sep 14, 2026, 10:02 UTC

1 25657U 99013A   26257.41869113 -.00000119  00000-0  00000-0 0  9994
2 25657  10.0163  53.9563 0003078  85.5033 294.8206  0.98872865100477

Suivez ASIASAT 3S en temps réel avec AllMySat

Download on the App Store